Location: Dodge City Community College Clyde Tombaugh Astronomy Center
(37.7756°N, 100.0412°W)
Time: 15:39:38
(UTC+00:00)

Cosmos 923 Rocket - Pass Details

Date: 06 July 2022
Orbit: 758 x 784 km, 74.0° (Epoch: 17 August)

Event Time Altitude Azimuth Distance (km) Brightness Sun altitude
Rises 10:09:35 0° 148° (SSE) 3,248 7.1 -12.8°
Reaches altitude 10° 10:13:08 10° 124° (SE) 2,330 6.7 -12.3°
Maximum altitude 10:15:43 14° 94° (E) 2,080 6.9 -11.9°
Drops below altitude 10° 10:18:19 10° 65° (ENE) 2,343 7.9 -11.5°
Sets 10:21:54 0° 40° (NE) 3,278 9.3 -11.0°
